EUTE HOT BIRD 13B (HB 8)

导读

EUTE HOT BIRD 13B,别名HB 8,是欧洲通信卫星组织Eutelsat运营的热鸟系列通信卫星,于2006年8月4日发射,定轨于东经13度地球静止轨道。它主要为欧洲、中东和非洲提供广播及直接到户卫星电视服务,支持多频道数字电视信号传输,凭借高带宽、高可靠性成为欧洲地区卫星电视传输的核心基础设施之一,目前仍在轨运行。

Basic Information
目录编号:
29270
目录名称:
EUTE HOT BIRD 13B (HB 8)
国际标识:
2006-032A
轨道中心:
EARTH
卫星名称:
EUTE HOT BIRD 13B (HB 8)
卫星全名:
--
卫星状态:
在轨 (已飞行7257 天)
发射日期:
2006-08-04 UTC
国别 :
(EUTE)
星等 :
--
Orbit Information
数据来源 国际轨道数据 AOE轨道数据
星历时间 2026-06-17T02:18:15+0800
1天前
查看轨道信息
2026-06-17T05:00:00+0800
21小时前
查看轨道信息
半长轴 42165.205km 42165.121km
偏心率 0.0003695 0.0003619
轨道倾角 1.661° 1.662°
近地点辐角 1.230° 0.338°
升交点赤经 82.247° 82.254°
平近点角 129.197° 170.629°
近地点 35771.487km 35771.724km
远地点 35802.649km 35802.244km
周期 1436.121分钟 1436.117分钟
每日圈数 1.002701 1.002704
Detailed Information
使用方式:
暂无
2D Orbit Map
3D Orbit Map
Orbit Altitude Analysis Chart
Orbit Inclination Analysis Chart
Orbit Comprehensive Analysis Chart
View Comprehensive Chart